CXBN-E
1 38762U 0        12298.44743389  .00007454  00000-0  67625-3 0 00428
2 38762 064.6738 276.4052 0219308 277.9029 079.7277 14.79404992005987
OBJECT F
1 38763U 0        12298.44715918  .00006264  00000-0  57074-3 0 00409
2 38763 064.6724 276.4017 0219671 278.1644 079.4619 14.79379828005822
CINEMA-G
1 38764U 0        12298.44683446  .00006525  00000-0  59401-3 0 00406
2 38764 064.6723 276.3967 0219406 278.2084 079.4214 14.79401011005988
CP5
1 38765U 0        12298.47334000  .00008350  00000-0  75521-3 0 00419
2 38765 064.6726 276.3011 0218766 277.9598 226.6709 14.79487188005980
RAIKO
1 38852U 98067CN  12299.87907583  .00047878  00000-0  75680-3 0   192
2 38852 051.6464 191.9836 0018826 198.0064 162.0258 15.52789701  3231
FITSAT 1
1 38853U 98067CP  12299.87727956  .00057221  00000-0  89490-3 0   217
2 38853 051.6485 191.9704 0014645 207.0984 152.9262 15.53088154  3289
TechEdSat
1 38854U 98067CQ  12298.90849351  .00075543  00000-0  11567-2 0 00299
2 38854 051.6464 196.7461 0014672 204.5586 155.4735 15.53553041003140
F 1
1 38855U 98067CR  12298.97345513  .00073109  00000-0  11236-2 0 00286
2 38855 051.6468 196.4289 0013882 205.1695 154.8620 15.53477922003048
WeWish
1 38856U 98067CS  12298.96806591  .00105875  00000-0  15562-2 0 00309
2 38856 051.6491 196.3990 0019441 195.0921 164.9494 15.54427406003043
